Погода в Эйн-Бокеке

Израиль     31°12′01″N   35°21′49″E
темп.,
°C
ветер,
м/с
пор.,
м/с
влажн.,
%
обл.,
%
осадки,
мм/ч
давл.,
гПа
погр.,
м
2 июля, сб
сб200:00+26сз12450 0.0 1008231
03:00+24зюз11570 0.0 100844
06:00+22з22680 0.0 100841
09:00+25ю12510 0.0 1009776
12:00+31юв02290 0.0 10071598
15:00+34сз13240 0.0 10062117
18:00+32сз75290 0.0 10061495
21:00+28сз58410 0.0 1006288
3 июля, вс
вс300:00+26з11450 0.0 100725
03:00+25з22480 0.0 100618
06:00+24з22500 0.0 100628
09:00+27зюз12400 0.0 1007689
12:00+32зсз24280 0.0 10051812
15:00+34зсз34230 0.0 10042343
18:00+33сз86260 0.0 10041569
21:00+28сз59380 0.0 1005262
4 июля, пн
пн400:00+27ссз11410 0.0 100511
03:00+25з11410 0.0 100511
06:00+24з22430 0.0 100517
09:00+28з11350 0.0 1006634
12:00+33юз03250 0.0 10051727
15:00+35зюз23180 0.0 10032382
18:00+34зсз86220 0.0 10041559
21:00+30сз47320 0.0 1005185
5 июля, вт
вт500:00+28сз11330 0.0 100611
03:00+26з33410 0.0 100628
06:00+24з33550 0.0 100733
09:00+28з12400 0.0 1007654
12:00+33зсз13240 0.0 10061989
15:00+35зсз34190 0.0 10042413
18:00+34зсз87210 0.0 10051595
21:00+29сз48340 0.0 1006225
6 июля, ср
ср600:00+27ссз11320 0.0 100611
03:00+26з22360 0.0 100618
06:00+23з33550 0.0 100734
09:00+27з11410 0.0 1007642
12:00+32з13230 0.0 10071849
15:00+35з23180 0.0 10052485
18:00+33зсз86210 0.0 10051402
21:00+28зсз58320 0.0 1007188